Flag for Germany Weather past 2 weeks in Bergheim, North Rhine-Westphalia, Germany

Now
77 °F

Passing clouds.


Feels Like: 79 °F
Forecast: 73 / 96 °F
Wind: No wind

Location: Noervenich

Current Time: Jul 4, 2015 at 1:00:16 AM

Latest Report: Jul 4, 2015 at 12:20 AM


Visibility: N/A

Pressure: 30.15 "Hg

Humidity: 74%

Dew point: 68 °F

Location of BergheimLocation

Historic Weather in Bergheim — Graph

°F

Bergheim temperature yesterday

Maximum temperature yesterday: 91 °F (at 6:20 PM)
Minimum temperature yesterday: 68 °F (at 4:20 AM)
Average temperature yesterday: 79 °F

Past Weeks' High & Low Weather Summary

 TemperatureHumidityPressure
High99 °F (Jul 2, 4:20 PM)100% (Jun 22, 11:20 PM)30.24 "Hg (Jun 22, 11:20 PM)
Low48 °F (Jun 22, 11:20 PM)25% (Jun 30, 6:20 PM)29.68 "Hg (Jun 22, 8:20 PM)
Average66 °F67%30.08 "Hg
* Reported Jun 18 11:20 PM — Jul 3 11:20 PM, Bergheim, Weather by CustomWeather, © 2015

Note: Actual official high and low records may vary slightly from our data, if they occured in-between our weather recording intervals... More about our weather records

Advertising

Bergheim weather history for previous 24 hours

 ConditionsComfort  
Time TempWeatherWind HumidityBarometerVisibility
11:20 PM
Fri, Jul 3
81 °FPassing clouds.2 mph66%30.15 "HgN/A
10:20 PM81 °FPartly sunny.2 mph70%30.15 "HgN/A
9:20 PM84 °FPartly sunny.3 mph58%30.15 "HgN/A
8:20 PM88 °FScattered clouds.2 mph49%30.15 "HgN/A
7:20 PM91 °FPassing clouds.2 mph41%30.15 "HgN/A
6:20 PM91 °FPassing clouds.3 mph41%30.15 "HgN/A
5:20 PM90 °FPassing clouds.2 mph46%30.18 "HgN/A
4:20 PM90 °FPassing clouds.1 mph46%30.18 "HgN/A
3:20 PM88 °FPassing clouds.1 mph49%30.21 "HgN/A
2:20 PM86 °FWarm.1 mph52%30.21 "HgN/A
1:20 PM84 °FWarm.2 mph55%30.21 "HgN/A
12:20 PM82 °FWarm.3 mph58%30.24 "HgN/A
11:20 AM79 °FWarm.1 mph61%30.24 "HgN/A
10:20 AM75 °FPassing clouds.1 mph69%30.24 "HgN/A
9:20 AM73 °FPassing clouds.2 mph74%30.24 "HgN/A
8:20 AM70 °FPassing clouds.3 mph83%30.24 "HgN/A
7:20 AM68 °FPassing clouds.3 mph88%30.24 "HgN/A
6:20 AM68 °FPassing clouds.2 mph88%30.24 "HgN/A
5:20 AM68 °FPassing clouds.6 mph88%30.24 "HgN/A
4:20 AM68 °FPassing clouds.7 mph83%30.21 "HgN/A
3:20 AM70 °FPassing clouds.7 mph78%30.21 "HgN/A
2:20 AM72 °FPassing clouds.5 mph73%30.18 "HgN/A
1:20 AM73 °FPassing clouds.5 mph74%30.18 "HgN/A
Weather by CustomWeather, © 2015

See weather overviewHow to use our weather pages